Weather in Velykyi Sambir

Ukraine / Sumi District     51°03′17″N   33°08′05″E
temp.,
°C
wind,
m/s
gust,
m/s
humid.,
%
clouds,
%
prec.,
mm/h
press.,
hPa
HPBL,
m
17 may, mon
mon1700:00+14ne498178 0.0 1009130
03:00+14ne51290100 1.3 1007215
06:00+15ene51195100 1.9 1003273
09:00+19ese6980100 1.9 1003487
12:00+22se697255 0.0 1003710
15:00+21se4878100 0.0 1002744
18:00+21se5977100 0.0 1001951
21:00+18sse412914 0.6 1002308
18 may, tue
tue1800:00+16s4997100 0.0 1003270
03:00+15sse3498100 0.0 100390
06:00+14se3698100 0.1 1003183
09:00+17s5886100 0.1 1003465
12:00+18s4678100 3.3 1003441
15:00+20s5674100 5.9 10021086
18:00+19sse588130 1.5 1002804
21:00+15sse41191100 3.1 1002318
19 may, wed
wed1900:00+13se4119682 0.0 1002284
03:00+12se4109728 0.0 1002278
06:00+12se499798 0.0 1003268
09:00+15sse4684100 0.0 1004540
12:00+15sse5786100 0.1 1005604
15:00+14se3692100 0.3 1005298
18:00+14ese3590100 0.3 1005163
21:00+13se3391100 0.9 100558
20 may, thu
thu2000:00+12sse229298 0.1 100425
03:00+10s2295100 0.1 100430
06:00+11wsw2498100 0.1 1005159
09:00+12wsw5692100 0.1 1005561
12:00+11wsw5994100 0.3 1006692
15:00+11wsw6119199 0.5 1007769
18:00+13w7137810 0.1 10071268
21:00+9w5138093 0.1 1008468
21 may, fri
fri2100:00+9wsw4128470 0.0 1009461
03:00+7ssw499443 0.1 1010223
06:00+8sw410925 0.0 1010320
09:00+13w69745 0.0 1011871
12:00+14wnw677110 0.0 10131064
15:00+17wnw566137 0.1 10141428
18:00+16nw346713 0.0 10151191
21:00+12nnw3376100 0.0 101633